BADBUCHAU Weather Reports


Display with metric or nautical units.
time (UTC)temp
F
wind
direction
speed
MPH
gust
MPH
rain 1hr
in
rain 24hr
in
rain mn
in
humidity
%
barometer
mb
20260506213209 47 172 13.0 0.0 0.00 0.00 0.02 88 1009.3
20260506210210 47 184 12.0 0.0 0.00 0.00 0.02 88 1009.1
20260506203210 47 168 6.0 0.0 0.00 0.00 0.02 88 1009.2
20260506200210 48 178 14.0 0.0 0.00 0.00 0.02 88 1009.0
20260506193215 48 200 15.0 0.0 0.00 0.00 0.02 87 1008.4
20260506190211 48 224 17.0 0.0 0.00 0.00 0.02 86 1008.0
20260506183209 49 180 21.0 0.0 0.00 0.00 0.02 83 1007.6
20260506180216 50 179 20.0 0.0 0.00 0.00 0.02 85 1007.4
20260506173210 50 177 13.0 0.0 0.00 0.00 0.02 90 1007.3
20260506170215 49 204 14.0 0.0 0.00 0.00 0.02 90 1006.6
20260506163210 49 219 21.0 0.0 0.00 0.00 0.02 89 1006.7
20260506160210 49 221 18.0 0.0 0.00 0.00 0.01 89 1006.4
20260506153210 49 222 24.0 0.0 0.00 0.00 0.00 90 1006.3
20260506150210 52 178 39.0 0.0 0.00 0.00 0.00 86 1005.1
20260506143210 58 190 25.0 0.0 0.00 0.00 0.00 73 1004.4
20260506140210 60 227 15.0 0.0 0.00 0.00 0.00 66 1004.0
20260506133211 60 198 7.0 0.0 0.00 0.00 0.00 68 1004.3
20260506130211 59 271 6.0 0.0 0.00 0.00 0.00 67 1004.6
20260506123210 61 258 6.0 0.0 0.00 0.00 0.00 66 1004.4
20260506120210 60 206 5.0 0.0 0.00 0.00 0.00 67 1004.3
20260506113217 60 213 4.0 0.0 0.00 0.00 0.00 69 1004.4
20260506110210 59 328 4.0 0.0 0.00 0.00 0.00 69 1004.6
20260506100213 56 306 5.0 0.0 0.00 0.00 0.00 77 1004.6
20260506093211 56 289 0.0 0.0 0.00 0.00 0.00 75 1005.1
20260506090211 56 264 4.0 0.0 0.00 0.00 0.00 75 1005.1
20260506083211 55 254 3.0 0.0 0.00 0.00 0.00 79 1005.0
20260506080212 54 231 6.0 0.0 0.00 0.00 0.00 81 1004.9
20260506073211 54 146 2.0 0.0 0.00 0.00 0.00 83 1005.2
20260506070212 53 80 8.0 0.0 0.00 0.00 0.00 86 1005.4
20260506060210 50 138 1.0 0.0 0.00 0.00 0.00 90 1005.1
20260506050211 48 138 0.0 0.0 0.00 0.00 0.00 90 1005.4
20260506043211 48 138 4.0 0.0 0.00 0.00 0.00 90 1005.6
20260506040211 49 138 0.0 0.0 0.00 0.00 0.00 88 1005.8
20260506033211 49 138 2.0 0.0 0.00 0.00 0.00 88 1006.2
20260506030212 50 138 0.0 0.0 0.00 0.00 0.00 87 1006.4
20260506023211 51 174 2.0 0.0 0.00 0.00 0.00 86 1006.5
20260506020212 51 160 7.0 0.0 0.00 0.00 0.00 86 1006.6
20260506013211 51 163 5.0 0.0 0.00 0.00 0.00 87 1006.8
20260506010212 51 156 8.0 0.0 0.00 0.00 0.00 87 1007.3
20260506003209 52 156 6.0 0.0 0.00 0.00 0.00 85 1007.1
20260506000211 52 196 5.0 0.0 0.00 0.00 0.00 85 1007.2
20260505233209 52 188 8.0 0.0 0.00 0.00 0.00 85 1007.5
20260505230209 51 159 9.0 0.0 0.00 0.00 0.00 85 1007.6
20260505223210 52 208 8.0 0.0 0.00 0.00 0.00 83 1007.7
20260505220209 53 180 10.0 0.0 0.00 0.00 0.00 82 1007.7